HKE1226 ZGGG-VHHH

Flight info

Callsign HKE1226
Flight time N/A
Altitude 20700
Route VIBOS R473 SIERA
Aircraft A321/M-SDE3FGHIRWY/LB1

Departure

Time 2026-05-01 15:00
Airport Guangzhou Baiyun International Airport (ZGGG)

Arrival

Time N/A
Airport Hong Kong International Airport (VHHH)
Time Latitude Longitude Altitude Speed Heading
2026-05-01 14:35 23.40196 113.30436 53 ft 0 kts 152°
2026-05-01 14:46 23.40234 113.30413 50 ft 4 kts 152°
2026-05-01 14:46 23.40252 113.30401 52 ft 4 kts 126°
2026-05-01 14:47 23.40258 113.30377 53 ft 4 kts 72°
2026-05-01 14:47 23.40249 113.30357 56 ft 0 kts 46°
2026-05-01 14:51 23.40262 113.30373 53 ft 5 kts 46°
2026-05-01 14:52 23.40342 113.30463 57 ft 12 kts 46°
2026-05-01 14:52 23.40351 113.30555 56 ft 14 kts 107°
2026-05-01 14:52 23.40294 113.30806 57 ft 20 kts 103°
2026-05-01 14:53 23.40345 113.30895 54 ft 15 kts 52°
2026-05-01 14:53 23.40330 113.31002 52 ft 16 kts 102°
2026-05-01 14:53 23.40375 113.31090 56 ft 16 kts 18°
2026-05-01 14:53 23.40495 113.31121 52 ft 19 kts 13°
2026-05-01 14:54 23.40635 113.31159 50 ft 22 kts 15°
2026-05-01 14:54 23.40788 113.31203 54 ft 23 kts 14°
2026-05-01 14:54 23.40901 113.31237 52 ft 9 kts 27°
2026-05-01 14:54 23.40917 113.31286 57 ft 6 kts 103°
2026-05-01 14:55 23.40914 113.31300 58 ft 0 kts 104°
2026-05-01 14:55 23.40914 113.31301 58 ft 1 kts 104°
2026-05-01 14:55 23.40903 113.31349 55 ft 13 kts 104°
2026-05-01 14:55 23.40864 113.31439 54 ft 11 kts 163°
2026-05-01 14:56 23.40798 113.31407 49 ft 0 kts 195°
2026-05-01 14:59 23.40791 113.31404 51 ft 6 kts 195°
2026-05-01 14:59 23.40486 113.31322 50 ft 84 kts 193°
2026-05-01 14:59 23.39694 113.31107 52 ft 147 kts 194°
2026-05-01 15:00 23.37338 113.30463 786 ft 189 kts 192°
2026-05-01 15:00 23.36101 113.30068 1589 ft 181 kts 195°
2026-05-01 15:00 23.34946 113.29657 2348 ft 172 kts 193°
2026-05-01 15:01 23.33726 113.29340 2619 ft 191 kts 191°
2026-05-01 15:01 23.32346 113.29011 2768 ft 217 kts 191°
2026-05-01 15:01 23.30812 113.28639 3305 ft 230 kts 192°
2026-05-01 15:01 23.29222 113.28411 4077 ft 233 kts 180°
2026-05-01 15:02 23.27589 113.28423 4882 ft 236 kts 181°
2026-05-01 15:02 23.26494 113.28423 5380 ft 239 kts 182°
2026-05-01 15:02 23.24217 113.28413 6194 ft 255 kts 183°
2026-05-01 15:02 23.22380 113.28419 6664 ft 270 kts 181°
2026-05-01 15:03 23.20508 113.28515 7335 ft 275 kts 180°
2026-05-01 15:03 23.18557 113.28661 8038 ft 280 kts 179°
2026-05-01 15:03 23.16598 113.28823 8774 ft 284 kts 179°
2026-05-01 15:03 23.14619 113.28986 9472 ft 288 kts 180°
2026-05-01 15:04 23.12603 113.29144 10138 ft 292 kts 180°
2026-05-01 15:04 23.10509 113.29299 10348 ft 313 kts 180°
2026-05-01 15:04 23.08254 113.29457 10482 ft 336 kts 180°
2026-05-01 15:04 23.05849 113.29624 10590 ft 357 kts 180°
2026-05-01 15:05 23.03309 113.29802 10819 ft 372 kts 180°
2026-05-01 15:05 23.00709 113.29992 11320 ft 378 kts 180°
2026-05-01 15:05 22.98074 113.30191 11917 ft 381 kts 180°
2026-05-01 15:05 22.95413 113.30392 12504 ft 384 kts 180°
2026-05-01 15:06 22.92773 113.30587 13083 ft 387 kts 180°
2026-05-01 15:06 22.90065 113.30785 13659 ft 391 kts 180°
2026-05-01 15:06 22.87337 113.30981 14196 ft 395 kts 180°
2026-05-01 15:06 22.84587 113.31178 14720 ft 398 kts 180°
2026-05-01 15:07 22.81778 113.31380 15247 ft 401 kts 180°
2026-05-01 15:07 22.78983 113.31581 15771 ft 405 kts 180°
2026-05-01 15:07 22.76157 113.31783 16298 ft 408 kts 180°
2026-05-01 15:07 22.73314 113.31989 16824 ft 412 kts 180°
2026-05-01 15:08 22.70480 113.32197 17342 ft 415 kts 180°
2026-05-01 15:08 22.67584 113.32409 17856 ft 419 kts 180°
2026-05-01 15:08 22.64666 113.32621 18333 ft 422 kts 180°
2026-05-01 15:08 22.61695 113.33085 18734 ft 430 kts 171°
2026-05-01 15:09 22.58803 113.34014 18930 ft 434 kts 166°
2026-05-01 15:09 22.55946 113.35003 18992 ft 442 kts 166°
2026-05-01 15:09 22.52976 113.36030 19001 ft 455 kts 166°
2026-05-01 15:09 22.49935 113.37083 18999 ft 461 kts 166°
2026-05-01 15:10 22.46877 113.38145 19001 ft 462 kts 166°
2026-05-01 15:10 22.40746 113.40273 19001 ft 463 kts 166°
2026-05-01 15:10 22.37672 113.41336 19003 ft 463 kts 166°
2026-05-01 15:11 22.34604 113.42396 18999 ft 463 kts 166°
2026-05-01 15:11 22.28472 113.44502 19000 ft 463 kts 166°
2026-05-01 15:11 22.25397 113.45553 18933 ft 464 kts 166°
2026-05-01 15:12 22.22338 113.46631 18697 ft 457 kts 162°
2026-05-01 15:12 22.17757 113.50614 18102 ft 405 kts 124°
2026-05-01 15:12 22.16597 113.53264 17860 ft 379 kts 109°
2026-05-01 15:13 22.17130 113.61218 15634 ft 354 kts 61°
2026-05-01 15:14 22.19819 113.65596 13915 ft 348 kts 54°
2026-05-01 15:14 22.21184 113.67739 12990 ft 346 kts 54°
2026-05-01 15:14 22.24063 113.71877 10384 ft 356 kts 40°
2026-05-01 15:15 22.27993 113.75444 6486 ft 384 kts 51°
2026-05-01 15:15 22.30464 113.80497 3507 ft 363 kts 71°
2026-05-01 15:16 22.31709 113.85315 1973 ft 313 kts 79°
2026-05-01 15:16 22.32287 113.89741 2425 ft 291 kts 83°